• In Portugal
  • List of Countries
  • For 7 days
  • Water Temperature
  • Satellite Maps
  • Weather Map
  • Weather Widgets
  • user-avatar
    Login

    Hourly Weather Omaruru

    Today, 20 September, Thursday

    Time Temperature Precipitation Wind Pressure Humidity
    00:00 +20°C° 0 mm 3 mps 661 mmHg 13%
    01:00 +19°C° 0 mm 3 mps 661 mmHg 16%
    02:00 +19°C° 0 mm 3 mps 660 mmHg 18%
    03:00 +18°C° 0 mm 3 mps 660 mmHg 20%
    04:00 +18°C° 0 mm 3 mps 660 mmHg 22%
    05:00 +19°C° 0 mm 3 mps 660 mmHg 22%
    06:00 +19°C° 0 mm 3 mps 660 mmHg 22%
    07:00 +20°C° 0 mm 3 mps 661 mmHg 21%
    08:00 +23°C° 0 mm 4 mps 662 mmHg 18%
    09:00 +27°C° 0 mm 4 mps 662 mmHg 15%
    10:00 +30°C° 0 mm 4 mps 663 mmHg 12%
    11:00 +33°C° 0 mm 3 mps 662 mmHg 10%
    12:00 +34°C° 0 mm 3 mps 662 mmHg 9%
    13:00 +36°C° 0 mm 2 mps 662 mmHg 7%
    14:00 +36°C° 0 mm 2 mps 661 mmHg 7%
    15:00 +36°C° 0 mm 2 mps 661 mmHg 7%
    16:00 +36°C° 0 mm 2 mps 660 mmHg 7%
    17:00 +32°C° 0 mm 2 mps 660 mmHg 9%
    18:00 +30°C° 0 mm 3 mps 660 mmHg 12%
    19:00 +27°C° 0 mm 3 mps 659 mmHg 14%
    20:00 +26°C° 0 mm 3 mps 660 mmHg 16%
    21:00 +25°C° 0 mm 2 mps 660 mmHg 18%
    22:00 +24°C° 0 mm 2 mps 660 mmHg 20%
    23:00 +23°C° 0 mm 2 mps 660 mmHg 21%

    Tomorrow, 21 September, Friday

    Time Temperature Precipitation Wind Pressure Humidity
    00:00 +21°C° 0 mm 2 mps 659 mmHg 22%
    01:00 +21°C° 0 mm 2 mps 659 mmHg 22%
    02:00 +20°C° 0 mm 2 mps 659 mmHg 22%
    03:00 +20°C° 0 mm 2 mps 658 mmHg 23%
    04:00 +20°C° 0 mm 2 mps 658 mmHg 23%
    05:00 +21°C° 0 mm 2 mps 659 mmHg 21%
    06:00 +24°C° 0 mm 2 mps 659 mmHg 20%
    07:00 +25°C° 0 mm 2 mps 660 mmHg 18%
    08:00 +28°C° 0 mm 2 mps 661 mmHg 15%
    09:00 +30°C° 0 mm 2 mps 661 mmHg 13%
    10:00 +34°C° 0 mm 2 mps 662 mmHg 10%
    11:00 +35°C° 0 mm 2 mps 661 mmHg 9%
    12:00 +36°C° 0 mm 2 mps 661 mmHg 8%
    13:00 +37°C° 0 mm 2 mps 661 mmHg 7%
    14:00 +37°C° 0 mm 3 mps 660 mmHg 7%
    15:00 +37°C° 0 mm 4 mps 660 mmHg 8%
    16:00 +37°C° 0 mm 5 mps 660 mmHg 8%
    17:00 +34°C° 0 mm 5 mps 660 mmHg 11%
    18:00 +32°C° 0 mm 5 mps 660 mmHg 14%
    19:00 +28°C° 0 mm 5 mps 659 mmHg 17%
    20:00 +27°C° 0 mm 4 mps 660 mmHg 19%
    21:00 +25°C° 0 mm 3 mps 660 mmHg 21%
    22:00 +24°C° 0 mm 2 mps 660 mmHg 23%
    23:00 +23°C° 0 mm 2 mps 660 mmHg 24%

    Day after tomorrow, 22 September, Saturday

    Time Temperature Precipitation Wind Pressure Humidity
    00:00 +23°C° 0 mm 2 mps 659 mmHg 24%
    01:00 +21°C° 0 mm 2 mps 659 mmHg 25%
    02:00 +21°C° 0 mm 2 mps 658 mmHg 25%
    03:00 +20°C° 0 mm 2 mps 658 mmHg 25%
    04:00 +20°C° 0 mm 2 mps 658 mmHg 26%
    05:00 +22°C° 0 mm 1 mps 658 mmHg 24%
    06:00 +24°C° 0 mm 1 mps 659 mmHg 22%
    07:00 +25°C° 0 mm 1 mps 660 mmHg 20%
    08:00 +28°C° 0 mm 1 mps 660 mmHg 17%
    09:00 +30°C° 0 mm 1 mps 661 mmHg 13%
    10:00 +33°C° 0 mm 1 mps 662 mmHg 10%
    11:00 +35°C° 0 mm 2 mps 661 mmHg 9%
    12:00 +36°C° 0 mm 3 mps 661 mmHg 8%
    13:00 +37°C° 0 mm 4 mps 661 mmHg 7%
    14:00 +37°C° 0 mm 5 mps 660 mmHg 8%
    15:00 +38°C° 0 mm 6 mps 660 mmHg 8%
    16:00 +36°C° 0 mm 7 mps 660 mmHg 9%
    17:00 +33°C° 0 mm 6 mps 660 mmHg 12%
    18:00 +30°C° 0 mm 5 mps 660 mmHg 15%
    19:00 +27°C° 0 mm 4 mps 660 mmHg 19%
    20:00 +26°C° 0 mm 3 mps 660 mmHg 21%
    21:00 +24°C° 0 mm 3 mps 660 mmHg 23%
    22:00 +23°C° 0 mm 2 mps 660 mmHg 25%
    23:00 +23°C° 0 mm 2 mps 660 mmHg 25%

    23 September, Sunday

    Time Temperature Precipitation Wind Pressure Humidity
    00:00 +22°C° 0 mm 1 mps 659 mmHg 26%
    01:00 +21°C° 0 mm 1 mps 659 mmHg 26%
    02:00 +21°C° 0 mm 1 mps 658 mmHg 26%
    03:00 +21°C° 0 mm 1 mps 658 mmHg 25%
    04:00 +21°C° 0 mm 1 mps 658 mmHg 25%
    05:00 +22°C° 0 mm 1 mps 659 mmHg 23%
    06:00 +23°C° 0 mm 1 mps 659 mmHg 21%
    07:00 +25°C° 0 mm 1 mps 660 mmHg 19%
    08:00 +27°C° 0 mm 1 mps 661 mmHg 17%
    09:00 +29°C° 0 mm 1 mps 661 mmHg 14%
    10:00 +31°C° 0 mm 1 mps 661 mmHg 11%
    11:00 +32°C° 0 mm 2 mps 661 mmHg 10%
    12:00 +35°C° 0 mm 2 mps 661 mmHg 9%
    13:00 +36°C° 0 mm 3 mps 660 mmHg 8%
    14:00 +36°C° 0 mm 4 mps 660 mmHg 9%
    15:00 +35°C° 0 mm 5 mps 660 mmHg 9%
    16:00 +35°C° 0 mm 7 mps 659 mmHg 9%
    17:00 +32°C° 0 mm 6 mps 659 mmHg 12%
    18:00 +29°C° 0 mm 5 mps 659 mmHg 15%
    19:00 +26°C° 0 mm 4 mps 659 mmHg 19%
    20:00 +25°C° 0 mm 3 mps 659 mmHg 21%
    21:00 +24°C° 0 mm 3 mps 659 mmHg 24%
    22:00 +21°C° 0 mm 2 mps 659 mmHg 26%
    23:00 +21°C° 0 mm 2 mps 659 mmHg 26%

    24 September, Monday

    Time Temperature Precipitation Wind Pressure Humidity
    00:00 +21°C° 0 mm 1 mps 658 mmHg 27%
    01:00 +21°C° 0 mm 1 mps 658 mmHg 27%
    02:00 +21°C° 0 mm 1 mps 658 mmHg 26%
    03:00 +21°C° 0 mm 1 mps 657 mmHg 25%
    04:00 +21°C° 0 mm 1 mps 657 mmHg 24%
    05:00 +22°C° 0 mm 1 mps 658 mmHg 22%
    06:00 +23°C° 0 mm 1 mps 658 mmHg 21%
    07:00 +24°C° 0 mm 1 mps 659 mmHg 19%
    08:00 +26°C° 0 mm 1 mps 659 mmHg 16%
    09:00 +28°C° 0 mm 1 mps 660 mmHg 13%
    10:00 +30°C° 0 mm 2 mps 660 mmHg 10%
    11:00 +33°C° 0 mm 3 mps 660 mmHg 9%
    12:00 +34°C° 0 mm 4 mps 659 mmHg 8%
    13:00 +35°C° 0 mm 4 mps 659 mmHg 8%
    14:00 +34°C° 0 mm 5 mps 659 mmHg 9%
    15:00 +34°C° 0 mm 6 mps 659 mmHg 9%
    16:00 +33°C° 0 mm 7 mps 658 mmHg 10%
    17:00 +29°C° 0 mm 6 mps 659 mmHg 15%
    18:00 +27°C° 0 mm 5 mps 659 mmHg 19%
    19:00 +23°C° 0 mm 4 mps 659 mmHg 23%
    20:00 +22°C° 0 mm 3 mps 659 mmHg 26%
    21:00 +20°C° 0 mm 3 mps 659 mmHg 29%
    22:00 +19°C° 0 mm 2 mps 659 mmHg 32%
    23:00 +19°C° 0 mm 2 mps 659 mmHg 34%

    25 September, Tuesday

    Time Temperature Precipitation Wind Pressure Humidity
    00:00 +18°C° 0 mm 2 mps 658 mmHg 35%
    01:00 +17°C° 0 mm 2 mps 658 mmHg 36%
    02:00 +17°C° 0 mm 2 mps 657 mmHg 37%
    03:00 +16°C° 0 mm 1 mps 657 mmHg 38%
    04:00 +15°C° 0 mm 1 mps 657 mmHg 39%
    05:00 +16°C° 0 mm 1 mps 657 mmHg 35%
    06:00 +19°C° 0 mm 1 mps 658 mmHg 32%
    07:00 +20°C° 0 mm 1 mps 659 mmHg 28%
    08:00 +22°C° 0 mm 1 mps 659 mmHg 22%
    09:00 +25°C° 0 mm 1 mps 660 mmHg 17%
    10:00 +27°C° 0 mm 2 mps 660 mmHg 11%
    11:00 +29°C° 0 mm 3 mps 660 mmHg 10%
    12:00 +30°C° 0 mm 4 mps 660 mmHg 9%
    13:00 +33°C° 0 mm 5 mps 660 mmHg 8%
    14:00 +32°C° 0 mm 5 mps 660 mmHg 8%
    15:00 +32°C° 0 mm 5 mps 660 mmHg 8%
    16:00 +32°C° 0 mm 5 mps 659 mmHg 9%
    17:00 +28°C° 0 mm 5 mps 660 mmHg 12%
    18:00 +26°C° 0 mm 4 mps 660 mmHg 15%
    19:00 +24°C° 0 mm 3 mps 660 mmHg 18%
    20:00 +21°C° 0 mm 2 mps 660 mmHg 22%
    21:00 +20°C° 0 mm 2 mps 660 mmHg 25%
    22:00 +20°C° 0 mm 1 mps 660 mmHg 28%
    23:00 +19°C° 0 mm 1 mps 659 mmHg 30%
    Show more